Location: ??????
(33.3472°N, 35.4764°E)
Time: 10:55:23
(UTC+00:00)

Cosmos 1864 Rocket - Pass Details

Date: 21 August 2019
Orbit: 951 x 997 km, 82.9° (Epoch: 22 September)

Event Time Altitude Azimuth Distance (km) Brightness Sun altitude
Rises 00:56:25 0° 349° (N) 3,706 7.9 -24.9°
Reaches altitude 10° 00:58:59 10° 346° (NNW) 2,748 7.1 -24.5°
Maximum altitude 01:05:09 60° 268° (W) 1,106 4.5 -23.4°
Enters shadow 01:06:50 45° 214° (SW) 1,299 4.7 -23.1°
